Home   Weather   Baden-Baden   Past weeks

Flag for Germany Past Weather in Baden-Baden, Baden-Württemberg, Germany — Yesterday and Last 2 Weeks

Now
45 °F

Sunny.


Feels Like: 45 °F
Forecast: 39 / 59 °F
Wind: 2 mph from North

Location: Karlsruhe - Baden Wurttemberg

Current Time: Apr 28, 2017 at 10:33:34 am

Latest Report: Apr 28, 2017 at 9:20 am


Visibility: 10 mi

Pressure: 29.95 "Hg

Humidity: 76%

Dew Point: 37 °F

Location of Baden-BadenLocation

Past Weather in Baden-Baden — Graph

°F

Baden-Baden Temperature Yesterday

Maximum temperature yesterday: 50 °F (at 4:50 pm)
Minimum temperature yesterday: 39 °F (at 5:50 am)
Average temperature yesterday: 45 °F

High & Low Weather Summary for the Past Weeks

 TemperatureHumidityPressure
High64 °F (Apr 24, 4:20 pm)100% (Apr 16, 5:50 am)30.60 "Hg (Apr 16, 5:50 am)
Low27 °F (Apr 20, 5:50 am)25% (Apr 21, 3:20 pm)29.74 "Hg (Apr 25, 4:50 am)
Average47 °F69%30.13 "Hg
* Reported Apr 13 9:20 am — Apr 28 9:20 am, Baden-Baden, Weather by CustomWeather, © 2017

Note: Actual official high and low records may vary slightly from our data, if they occured in-between our weather recording intervals... More about our weather records

Advertising

Baden-Baden Weather History for the Previous 24 Hours

Scroll right to see more
 ConditionsComfort  
Time TempWeatherWind HumidityBarometerVisibility
9:20 am
Fri, Apr 28
45 °FSunny.2 mph76%29.95 "Hg10 mi
8:50 am43 °FSunny.1 mph81%29.95 "Hg10 mi
8:20 am39 °FClear.2 mph100%29.95 "Hg6 mi
7:50 am37 °FClear.1 mph100%29.95 "Hg4 mi
7:20 am36 °FClear.1 mph100%29.95 "Hg4 mi
6:50 am37 °FLight fog.1 mph100%29.95 "Hg4 mi
6:20 am37 °FFog.3 mph93%29.92 "Hg5 mi
5:50 am37 °FFog.1 mph100%29.92 "Hg5 mi
5:20 am39 °FClear.2 mph100%29.92 "Hg5 mi
4:50 am39 °FClear.2 mph100%29.92 "Hg10 mi
4:20 am39 °FClear.3 mph100%29.92 "Hg10 mi
11:20 pm
Thu, Apr 27
43 °FClear.3 mph87%29.98 "Hg10 mi
10:50 pm45 °FClear.3 mph87%29.95 "Hg10 mi
10:20 pm45 °FClear.2 mph81%29.95 "Hg10 mi
9:50 pm45 °FClear.2 mph81%29.98 "Hg10 mi
8:50 pm46 °FClear.3 mph71%29.95 "Hg10 mi
8:20 pm46 °FBroken clouds.2 mph76%29.95 "HgN/A
7:50 pm46 °FBroken clouds.3 mph76%29.95 "HgN/A
7:20 pm46 °FPassing clouds.5 mph76%29.95 "HgN/A
6:50 pm46 °FBroken clouds.12 mph71%29.95 "HgN/A
6:20 pm50 °FBroken clouds.2 mph58%29.95 "HgN/A
5:50 pm50 °FSunny.1 mph54%29.95 "Hg10 mi
5:20 pm50 °FSunny.3 mph54%29.95 "Hg10 mi
4:50 pm50 °FSunny.3 mph58%29.95 "Hg10 mi
4:20 pm48 °FPartly sunny.3 mph62%29.98 "HgN/A
3:50 pm46 °FPartly sunny.3 mph71%29.98 "HgN/A
3:20 pm45 °FLight rain. Partly sunny.6 mph81%29.98 "HgN/A
2:50 pm45 °FLight rain. Partly sunny.6 mph81%29.98 "HgN/A
2:20 pm46 °FPartly sunny.3 mph76%29.98 "HgN/A
1:50 pm45 °FPartly sunny.5 mph87%29.98 "HgN/A
1:20 pm48 °FPartly sunny.3 mph66%29.98 "HgN/A
12:50 pm48 °FPartly sunny.6 mph66%29.98 "HgN/A
12:20 pm46 °FPartly sunny.2 mph71%29.98 "HgN/A
11:50 am46 °FPartly sunny.2 mph66%30.01 "HgN/A
11:20 am45 °FPartly sunny.2 mph76%30.01 "HgN/A
10:50 am46 °FScattered clouds.2 mph82%30.01 "HgN/A
10:20 am45 °FBroken clouds.2 mph81%30.01 "Hg6 mi
Weather by CustomWeather, © 2017

See weather overviewHow to use our weather pages